MRN77 LEDA-LFIP

Flight info

Callsign MRN77
Flight time 0h 29m
Altitude 14000
Route BARBO
Aircraft C208/L-SDFGR/C

Departure

Time 2026-05-05 14:01
Airport Lleida-Alguaire Airport (LEDA)

Arrival

Time 2026-05-05 14:31
Airport Altiport de Peyresourde Balestas (LFIP)
Time Latitude Longitude Altitude Speed Heading
2026-05-05 13:47 41.72938 0.54103 1149 ft 0 kts 43°
2026-05-05 13:58 41.72939 0.54106 1149 ft 2 kts 79°
2026-05-05 13:58 41.72913 0.54095 1149 ft 9 kts 220°
2026-05-05 13:59 41.72744 0.53891 1152 ft 20 kts 223°
2026-05-05 13:59 41.72704 0.53841 1152 ft 0 kts 221°
2026-05-05 14:00 41.72668 0.53794 1152 ft 13 kts 239°
2026-05-05 14:00 41.72679 0.53705 1152 ft 18 kts 308°
2026-05-05 14:00 41.72927 0.53341 1146 ft 70 kts 315°
2026-05-05 14:00 41.73351 0.52861 1257 ft 89 kts 310°
2026-05-05 14:01 41.73802 0.52228 1448 ft 105 kts 305°
2026-05-05 14:01 41.74304 0.51405 1720 ft 120 kts 304°
2026-05-05 14:01 41.74810 0.50475 2099 ft 121 kts 301°
2026-05-05 14:01 41.75254 0.49520 2416 ft 121 kts 299°
2026-05-05 14:02 41.75744 0.48606 2675 ft 127 kts 317°
2026-05-05 14:02 41.76576 0.48137 2912 ft 137 kts 354°
2026-05-05 14:02 41.77538 0.48289 3152 ft 145 kts 19°
2026-05-05 14:02 41.78396 0.49049 3384 ft 150 kts 30°
2026-05-05 14:03 41.79234 0.49889 3596 ft 151 kts 33°
2026-05-05 14:03 41.79796 0.50473 3749 ft 152 kts 33°
2026-05-05 14:03 41.80628 0.51354 3978 ft 153 kts 34°
2026-05-05 14:03 41.81406 0.52341 4211 ft 155 kts 42°
2026-05-05 14:04 41.82147 0.53406 4449 ft 156 kts 44°
2026-05-05 14:04 41.82876 0.54488 4695 ft 157 kts 45°
2026-05-05 14:04 41.83587 0.55595 4936 ft 156 kts 46°
2026-05-05 14:04 41.84299 0.56688 5178 ft 155 kts 45°
2026-05-05 14:05 41.85043 0.57720 5430 ft 153 kts 39°
2026-05-05 14:05 41.85826 0.58682 5688 ft 153 kts 37°
2026-05-05 14:05 41.86648 0.59583 5958 ft 153 kts 33°
2026-05-05 14:05 41.87494 0.60456 6210 ft 154 kts 32°
2026-05-05 14:06 41.88427 0.61070 6456 ft 148 kts 12°
2026-05-05 14:06 41.89404 0.61547 6700 ft 151 kts 17°
2026-05-05 14:06 41.90369 0.62111 6951 ft 152 kts 18°
2026-05-05 14:06 41.91344 0.62667 7192 ft 153 kts 18°
2026-05-05 14:07 41.92331 0.63201 7445 ft 153 kts 17°
2026-05-05 14:07 41.93329 0.63723 7699 ft 155 kts 16°
2026-05-05 14:07 41.94335 0.64241 7947 ft 155 kts 15°
2026-05-05 14:07 41.95346 0.64757 8198 ft 156 kts 16°
2026-05-05 14:08 41.96361 0.65275 8430 ft 157 kts 16°
2026-05-05 14:08 41.97382 0.65799 8652 ft 158 kts 16°
2026-05-05 14:08 41.98411 0.66327 8896 ft 159 kts 16°
2026-05-05 14:08 41.99450 0.66858 9133 ft 161 kts 17°
2026-05-05 14:09 42.00501 0.67394 9371 ft 162 kts 15°
2026-05-05 14:09 42.01569 0.67938 9628 ft 166 kts 16°
2026-05-05 14:09 42.02650 0.68493 9848 ft 167 kts 17°
2026-05-05 14:09 42.03752 0.69059 10062 ft 167 kts 17°
2026-05-05 14:10 42.04843 0.69615 10285 ft 168 kts 17°
2026-05-05 14:10 42.05937 0.70176 10509 ft 169 kts 17°
2026-05-05 14:10 42.07033 0.70741 10702 ft 168 kts 17°
2026-05-05 14:10 42.08120 0.71298 10914 ft 166 kts 17°
2026-05-05 14:11 42.09197 0.71847 11137 ft 166 kts 17°
2026-05-05 14:11 42.10285 0.72401 11347 ft 168 kts 17°
2026-05-05 14:11 42.11381 0.72965 11549 ft 169 kts 17°
2026-05-05 14:11 42.12483 0.73531 11747 ft 170 kts 17°
2026-05-05 14:12 42.13592 0.74098 11961 ft 171 kts 17°
2026-05-05 14:12 42.14708 0.74671 12166 ft 172 kts 17°
2026-05-05 14:12 42.15829 0.75246 12375 ft 173 kts 17°
2026-05-05 14:12 42.16955 0.75826 12579 ft 173 kts 17°
2026-05-05 14:13 42.18082 0.76404 12790 ft 174 kts 17°
2026-05-05 14:13 42.19212 0.76985 13006 ft 174 kts 17°
2026-05-05 14:13 42.20345 0.77568 13208 ft 174 kts 17°
2026-05-05 14:13 42.21478 0.78152 13439 ft 174 kts 17°
2026-05-05 14:14 42.22611 0.78736 13636 ft 175 kts 17°
2026-05-05 14:14 42.23758 0.79327 13752 ft 178 kts 17°
2026-05-05 14:14 42.24925 0.79926 13877 ft 181 kts 17°
2026-05-05 14:14 42.26132 0.80547 13898 ft 190 kts 18°
2026-05-05 14:15 42.27383 0.81193 13905 ft 195 kts 18°
2026-05-05 14:15 42.28667 0.81856 13909 ft 200 kts 18°
2026-05-05 14:15 42.29977 0.82532 13906 ft 203 kts 18°
2026-05-05 14:15 42.31307 0.83219 13915 ft 206 kts 18°
2026-05-05 14:16 42.32648 0.83911 13900 ft 206 kts 18°
2026-05-05 14:16 42.34184 0.84705 13902 ft 206 kts 18°
2026-05-05 14:16 42.35333 0.85299 13911 ft 207 kts 18°
2026-05-05 14:16 42.36675 0.85992 13903 ft 207 kts 18°
2026-05-05 14:17 42.38013 0.86682 13906 ft 206 kts 18°
2026-05-05 14:17 42.39350 0.87375 13917 ft 206 kts 18°
2026-05-05 14:17 42.40697 0.88075 13936 ft 209 kts 18°
2026-05-05 14:17 42.42065 0.88782 13923 ft 211 kts 18°
2026-05-05 14:18 42.43440 0.89488 13915 ft 211 kts 17°
2026-05-05 14:18 42.44866 0.89648 13910 ft 205 kts 342°
2026-05-05 14:18 42.46046 0.88720 13901 ft 193 kts 310°
2026-05-05 14:18 42.46983 0.87426 13908 ft 192 kts 309°
2026-05-05 14:19 42.47932 0.86149 13903 ft 192 kts 309°
2026-05-05 14:19 42.48881 0.84884 13904 ft 191 kts 309°
2026-05-05 14:19 42.49827 0.83616 13916 ft 192 kts 309°
2026-05-05 14:19 42.50778 0.82336 13926 ft 193 kts 309°
2026-05-05 14:20 42.51734 0.81056 13913 ft 193 kts 309°
2026-05-05 14:20 42.52691 0.79780 13907 ft 192 kts 309°
2026-05-05 14:20 42.53640 0.78504 13922 ft 192 kts 309°
2026-05-05 14:20 42.54589 0.77222 13920 ft 193 kts 309°
2026-05-05 14:21 42.55542 0.75945 13918 ft 193 kts 309°
2026-05-05 14:21 42.56495 0.74666 13916 ft 192 kts 309°
2026-05-05 14:21 42.57445 0.73390 13919 ft 192 kts 309°
2026-05-05 14:21 42.58392 0.72121 13909 ft 190 kts 309°
2026-05-05 14:22 42.59329 0.70862 13915 ft 189 kts 309°
2026-05-05 14:22 42.60264 0.69601 13933 ft 190 kts 309°
2026-05-05 14:22 42.61207 0.68331 13923 ft 191 kts 309°
2026-05-05 14:22 42.62151 0.67068 13907 ft 190 kts 309°
2026-05-05 14:23 42.63095 0.65798 13913 ft 188 kts 309°
2026-05-05 14:23 42.64027 0.64561 13927 ft 187 kts 309°
2026-05-05 14:23 42.64944 0.63315 13940 ft 187 kts 308°
2026-05-05 14:23 42.65867 0.62065 13931 ft 188 kts 309°
2026-05-05 14:24 42.66789 0.60806 13941 ft 189 kts 308°
2026-05-05 14:24 42.67721 0.59538 13940 ft 191 kts 309°
2026-05-05 14:24 42.68665 0.58266 13938 ft 191 kts 309°
2026-05-05 14:24 42.69611 0.56988 13923 ft 194 kts 309°
2026-05-05 14:25 42.70558 0.55714 13670 ft 185 kts 309°
2026-05-05 14:25 42.71443 0.54529 13388 ft 172 kts 309°
2026-05-05 14:25 42.72270 0.53418 13122 ft 163 kts 308°
2026-05-05 14:25 42.73035 0.52329 12862 ft 156 kts 306°
2026-05-05 14:26 42.73885 0.51389 12582 ft 158 kts 318°
2026-05-05 14:26 42.74821 0.50568 12223 ft 164 kts 322°
2026-05-05 14:26 42.75811 0.49748 11849 ft 168 kts 322°
2026-05-05 14:26 42.76795 0.48891 11447 ft 168 kts 321°
2026-05-05 14:27 42.77768 0.48014 11072 ft 168 kts 320°
2026-05-05 14:27 42.78732 0.47126 10686 ft 167 kts 320°
2026-05-05 14:27 42.79681 0.46237 10294 ft 164 kts 320°
2026-05-05 14:27 42.80556 0.45259 9955 ft 162 kts 311°
2026-05-05 14:28 42.81349 0.44165 9599 ft 163 kts 309°
2026-05-05 14:28 42.81994 0.42910 9224 ft 162 kts 296°
2026-05-05 14:28 42.82358 0.41475 8850 ft 161 kts 283°
2026-05-05 14:28 42.82636 0.40030 8447 ft 155 kts 279°
2026-05-05 14:29 42.82486 0.38663 8035 ft 146 kts 234°
2026-05-05 14:29 42.81639 0.38067 7670 ft 137 kts 180°
2026-05-05 14:29 42.80779 0.38585 7068 ft 142 kts 143°
2026-05-05 14:29 42.80139 0.39496 6342 ft 130 kts 129°
2026-05-05 14:30 42.79777 0.40568 5739 ft 124 kts 96°
2026-05-05 14:30 42.79766 0.41720 5312 ft 116 kts 94°
2026-05-05 14:30 42.79726 0.42678 5145 ft 88 kts 92°
2026-05-05 14:30 42.79689 0.43404 5095 ft 65 kts 91°
2026-05-05 14:31 42.79669 0.43770 5215 ft 6 kts 95°
2026-05-05 14:31 42.79669 0.43771 5216 ft 0 kts 94°
2026-05-05 14:32 42.79668 0.43761 5204 ft 7 kts 60°
2026-05-05 14:32 42.79668 0.43741 5197 ft 17 kts 257°
2026-05-05 14:32 42.79700 0.43254 5086 ft 79 kts 275°
2026-05-05 14:33 42.79992 0.42477 4976 ft 115 kts 323°
2026-05-05 14:33 42.80763 0.42041 5065 ft 119 kts 339°
2026-05-05 14:33 42.81368 0.41342 5189 ft 118 kts 284°
2026-05-05 14:33 42.81029 0.40509 5304 ft 105 kts 197°
2026-05-05 14:34 42.80298 0.40680 5285 ft 109 kts 148°
2026-05-05 14:34 42.79823 0.41441 5292 ft 111 kts 110°
2026-05-05 14:34 42.79741 0.42503 5200 ft 113 kts 92°
2026-05-05 14:34 42.79683 0.43523 5114 ft 97 kts 94°
2026-05-05 14:35 42.79659 0.43983 5275 ft 3 kts 94°
2026-05-05 14:35 42.79653 0.43984 5272 ft 1 kts 274°
2026-05-05 14:35 42.79658 0.43960 5272 ft 6 kts 277°
2026-05-05 14:35 42.79628 0.43931 5275 ft 0 kts 218°